Tracking 20232 objects as of 21-Jan-2020
HD Live streaming from Space Station
objects crossing your sky now

NOAA 16 DEB

Track NOAA 16 DEB now!
10-day predictions


NORAD ID: 42349
Int'l Code: 2000-055QR
Perigee: 857.1 km
Apogee: 869.1 km
Inclination: 98.8 °
Period: 102.1 minutes
Semi major axis: 7234 km
RCS: Unknown
Launch date: September 21, 2000
Source: United States (US)
Launch site: AIR FORCE WESTERN TEST RANGE (AFWTR)

Note: This is SATELLITE DEBRIS
aabbcc
Your satellite tracking list
Your tracking list is empty




NASA's NSSDC Master Catalog

Two Line Element Set (TLE):
1 42349U 00055QR  20020.03489067 +.00000406 +00000-0 +25028-3 0  9993
2 42349 098.8265 091.4860 0008296 300.2128 059.8221 14.10984927196087
Source of the keplerian elements: AFSPC